Wadena, MN

7:09 AM CDT on June 27, 2017 (GMT -0500)
Wadena Municipal

Weather History for KADC - November, 2011

Change the Weather History Date:

Sunday, November 13, 2011

  Actual Average Record
Temperature  
Mean Temperature 32 °F -  
Max Temperature 39 °F 34 °F 64 °F (2001)
Min Temperature 26 °F 19 °F -5 °F (1986)
Degree Days  
Heating Degree Days 32    
Moisture  
Dew Point 26 °F    
Average Humidity 79    
Maximum Humidity 93    
Minimum Humidity 56    
Precipitation  
Precipitation 0.00 in - - ()
Sea Level Pressure  
Sea Level Pressure 29.25 in    
Wind  
Wind Speed 7 mph (West)    
Max Wind Speed 16 mph    
Max Gust Speed 21 mph    
Visibility 10 miles    
Events      
Averages and records for this station are not official NWS values.
T = Trace of Precipitation, MM = Missing Value Source: NWS Daily Summary

Daily Weather History Graph

Daily Weather History Graph

Search for Another Location

Airport or City:

Trip Planner

Search our weather history database for the weather conditions in past years. The results will help you decide how hot, cold, wet, or windy it might be!

Date:

Astronomy

Nov. 13, 2011 Rise Set
Actual Time 7:19 AM CST 4:50 PM CST
Civil Twilight 6:46 AM CST 5:22 PM CST
Nautical Twilight 6:10 AM CST 5:59 PM CST
Astronomical Twilight 5:34 AM CST 6:34 PM CST
Moon 6:53 PM CST (11/13) 9:59 AM CST (11/13)
Length of Visible Light 10h 35m
Length of Day
9h 30m
Waning Gibbous, 92% of the Moon is Illuminated
Nov 13
Waning Gibbous
Nov 18
Last Quarter
Nov 25
New
Dec 2
First Quarter
Dec 10
Full

Hourly Weather History & Observations

Time (CST) Temp. Windchill Dew Point Humidity Pressure Visibility Wind Dir Wind Speed Gust Speed Precip Events Conditions
12:34 AM 39.2 °F 35.9 °F 24.8 °F 56% 29.11 in 10.0 mi SW 4.6 mph - N/A   Clear
12:53 AM 37.4 °F 32.8 °F 24.8 °F 60% 29.11 in 10.0 mi WSW 5.8 mph - N/A   Clear
1:14 AM 35.6 °F 30.7 °F 24.8 °F 65% 29.13 in 10.0 mi WSW 5.8 mph - N/A   Clear
1:35 AM 35.6 °F 29.2 °F 24.8 °F 65% 29.13 in 10.0 mi West 8.1 mph - N/A   Clear
1:52 AM 35.6 °F 29.2 °F 24.8 °F 65% 29.13 in 10.0 mi West 8.1 mph - N/A   Clear
2:15 AM 33.8 °F 27.7 °F 24.8 °F 70% 29.14 in 10.0 mi West 6.9 mph - N/A   Clear
2:35 AM 33.8 °F 28.6 °F 23.0 °F 65% 29.14 in 10.0 mi West 5.8 mph - N/A   Clear
2:53 AM 32.0 °F 27.5 °F 23.0 °F 69% 29.14 in 10.0 mi West 4.6 mph - N/A   Clear
3:15 AM 32.0 °F 26.4 °F 23.0 °F 69% 29.15 in 10.0 mi West 5.8 mph - N/A   Clear
3:35 AM 33.8 °F 27.7 °F 23.0 °F 65% 29.14 in 10.0 mi West 6.9 mph - N/A   Clear
3:52 AM 33.8 °F 28.6 °F 23.0 °F 65% 29.15 in 10.0 mi West 5.8 mph - N/A   Clear
4:15 AM 30.2 °F 22.6 °F 23.0 °F 75% 29.16 in 10.0 mi West 8.1 mph - N/A   Clear
4:35 AM 30.2 °F 21.9 °F 24.8 °F 80% 29.17 in 10.0 mi West 9.2 mph - N/A   Clear
4:52 AM 30.2 °F 21.9 °F 24.8 °F 80% - 10.0 mi West 9.2 mph - N/A   Clear
5:35 AM 30.2 °F 23.4 °F 26.6 °F 86% 29.18 in 10.0 mi WNW 6.9 mph - N/A   Clear
5:53 AM 30.2 °F 23.4 °F 24.8 °F 80% 29.18 in 10.0 mi WNW 6.9 mph - N/A   Clear
6:15 AM 28.4 °F 20.4 °F 26.6 °F 93% 29.19 in 10.0 mi WNW 8.1 mph - N/A   Clear
6:53 AM 28.4 °F 18.0 °F 26.6 °F 93% 29.21 in 10.0 mi WNW 12.7 mph 18.4 mph N/A   Overcast
7:15 AM 30.2 °F 20.8 °F 26.6 °F 86% 29.21 in 10.0 mi WNW 11.5 mph - N/A   Overcast
7:34 AM 30.2 °F 19.3 °F 26.6 °F 86% 29.21 in 7.0 mi NW 15.0 mph - N/A   Overcast
7:53 AM 30.2 °F 20.2 °F 26.6 °F 86% 29.21 in 7.0 mi NW 12.7 mph - N/A   Overcast
8:15 AM 30.2 °F 18.9 °F 26.6 °F 86% 29.24 in 7.0 mi WNW 16.1 mph - N/A   Overcast
8:34 AM 30.2 °F 19.8 °F 26.6 °F 86% 29.25 in 7.0 mi WNW 13.8 mph 17.3 mph N/A   Overcast
8:53 AM 30.2 °F 21.9 °F 26.6 °F 86% 29.25 in 7.0 mi West 9.2 mph - N/A   Overcast
9:15 AM 30.2 °F 19.8 °F 26.6 °F 86% 29.26 in 10.0 mi WNW 13.8 mph 20.7 mph N/A   Overcast
9:34 AM 30.2 °F 21.3 °F 26.6 °F 86% 29.26 in 7.0 mi WNW 10.4 mph - N/A   Overcast
9:53 AM 30.2 °F 21.3 °F 26.6 °F 86% 29.26 in 10.0 mi WNW 10.4 mph - N/A   Overcast
10:15 AM 32.0 °F 23.6 °F 26.6 °F 80% 29.26 in 10.0 mi WNW 10.4 mph - N/A   Overcast
10:34 AM 32.0 °F 25.6 °F 26.6 °F 80% 29.27 in 10.0 mi WNW 6.9 mph - N/A   Overcast
10:53 AM 32.0 °F 24.8 °F 26.6 °F 80% - 10.0 mi WNW 8.1 mph - N/A   Overcast
11:15 AM 32.0 °F 24.2 °F 26.6 °F 80% 29.28 in 10.0 mi West 9.2 mph - N/A   Overcast
11:34 AM 32.0 °F 23.0 °F 26.6 °F 80% 29.27 in 10.0 mi WNW 11.5 mph - N/A   Overcast
11:53 AM 32.0 °F 24.8 °F 26.6 °F 80% 29.26 in 10.0 mi West 8.1 mph - N/A   Overcast
12:15 PM 32.0 °F 24.8 °F 26.6 °F 80% 29.26 in 10.0 mi WNW 8.1 mph - N/A   Overcast
12:34 PM 33.8 °F 25.8 °F 26.6 °F 75% 29.27 in 10.0 mi West 10.4 mph - N/A   Overcast
12:53 PM 32.0 °F 23.0 °F 26.6 °F 80% 29.28 in 10.0 mi West 11.5 mph - N/A   Overcast
1:15 PM 33.8 °F 25.3 °F 26.6 °F 75% 29.28 in 10.0 mi West 11.5 mph - N/A   Overcast
1:34 PM 33.8 °F 26.4 °F 26.6 °F 75% 29.28 in 10.0 mi West 9.2 mph 17.3 mph N/A   Overcast
1:53 PM 33.8 °F 25.3 °F 26.6 °F 75% 29.29 in 10.0 mi West 11.5 mph 17.3 mph N/A   Overcast
2:15 PM 33.8 °F 25.3 °F 24.8 °F 70% 29.29 in 10.0 mi West 11.5 mph - N/A   Overcast
2:34 PM 33.8 °F 27.7 °F 26.6 °F 75% 29.29 in 10.0 mi West 6.9 mph - N/A   Overcast
2:53 PM 33.8 °F 27.0 °F 26.6 °F 75% 29.29 in 10.0 mi West 8.1 mph - N/A   Overcast
3:15 PM 33.8 °F 27.0 °F 26.6 °F 75% 29.29 in 10.0 mi West 8.1 mph - N/A   Overcast
3:35 PM 35.6 °F 29.2 °F 26.6 °F 70% 29.29 in 10.0 mi West 8.1 mph - N/A   Mostly Cloudy
3:53 PM 35.6 °F 30.7 °F 26.6 °F 70% 29.29 in 10.0 mi West 5.8 mph - N/A   Scattered Clouds
4:15 PM 33.8 °F 27.0 °F 26.6 °F 75% 29.30 in 10.0 mi WSW 8.1 mph - N/A   Clear
4:34 PM 33.8 °F 30.8 °F 26.6 °F 75% 29.31 in 10.0 mi SW 3.5 mph - N/A   Clear
4:53 PM 30.2 °F 26.7 °F 26.6 °F 86% 29.32 in 10.0 mi SW 3.5 mph - N/A   Clear
5:15 PM 30.2 °F 26.7 °F 24.8 °F 80% 29.32 in 10.0 mi SSW 3.5 mph - N/A   Scattered Clouds
5:35 PM 30.2 °F 25.4 °F 24.8 °F 80% 29.32 in 10.0 mi South 4.6 mph - N/A   Clear
5:53 PM 28.4 °F 24.6 °F 24.8 °F 86% 29.33 in 10.0 mi South 3.5 mph - N/A   Clear
6:15 PM 28.4 °F 24.6 °F 24.8 °F 86% 29.33 in 10.0 mi South 3.5 mph - N/A   Clear
6:34 PM 28.4 °F - 24.8 °F 86% 29.33 in 10.0 mi Calm Calm - N/A   Clear
6:53 PM 28.4 °F 24.6 °F 24.8 °F 86% 29.33 in 10.0 mi SSE 3.5 mph - N/A   Clear
7:15 PM 26.6 °F 22.6 °F 24.8 °F 93% 29.32 in 10.0 mi SSE 3.5 mph - N/A   Clear
7:35 PM 26.6 °F 22.6 °F 24.8 °F 93% 29.33 in 10.0 mi SSE 3.5 mph - N/A   Clear
7:53 PM 26.6 °F 22.6 °F 23.0 °F 86% 29.32 in 10.0 mi SSE 3.5 mph - N/A   Clear
8:15 PM 26.6 °F 20.0 °F 24.8 °F 93% 29.33 in 10.0 mi South 5.8 mph - N/A   Clear
8:35 PM 26.6 °F 20.0 °F 24.8 °F 93% 29.33 in 10.0 mi South 5.8 mph - N/A   Clear
8:53 PM 28.4 °F 23.3 °F 26.6 °F 93% 29.33 in 10.0 mi South 4.6 mph - N/A   Clear
9:14 PM 28.4 °F 22.2 °F 26.6 °F 93% 29.33 in 10.0 mi SSW 5.8 mph - N/A   Clear
9:35 PM 28.4 °F 21.2 °F 26.6 °F 93% 29.34 in 10.0 mi SSW 6.9 mph - N/A   Clear
9:53 PM 30.2 °F 22.6 °F 26.6 °F 86% 29.33 in 10.0 mi SSW 8.1 mph - N/A   Clear
10:15 PM 28.4 °F 22.2 °F 24.8 °F 86% 29.33 in 10.0 mi South 5.8 mph - N/A   Clear
10:34 PM 28.4 °F 21.2 °F 24.8 °F 86% 29.34 in 10.0 mi SSW 6.9 mph - N/A   Clear
10:53 PM 28.4 °F 21.2 °F 24.8 °F 86% 29.34 in 10.0 mi SSW 6.9 mph - N/A   Clear
11:15 PM 28.4 °F 22.2 °F 24.8 °F 86% 29.34 in 10.0 mi South 5.8 mph - N/A   Clear
11:35 PM 28.4 °F 21.2 °F 23.0 °F 80% 29.34 in 10.0 mi South 6.9 mph - N/A   Clear
11:53 PM 28.4 °F 21.2 °F 23.0 °F 80% 29.35 in 10.0 mi SSW 6.9 mph - N/A   Clear